{"data":{"norad_id":62463,"intl_designator":"2024-254B","name":"STARLINK-11455 [DTC]","alt_names":[],"object_type":"PAYLOAD","status":"ACTIVE","operator":null,"country":"US","launch_date":"2024-12-31","launch_site_code":"AFETR","launch_vehicle":null,"mission":null,"orbit_class":"UNKNOWN","rcs_meters":null,"size_class":null,"mass_kg":null,"dimensions":null,"purposes":["comms"],"wikipedia_slug":null,"has_3d_model":false,"image_url":null,"decayed_at":null,"tle_current":{"epoch":"2026-09-21T07:40:40.992960Z","epoch_age_seconds":103728,"freshness":"FRESH","line1":"1 62463U 24254B   26264.31991890  .00140787  00000+0  10750-2 0  9999","line2":"2 62463  43.0025 124.2512 0001041 343.1002  16.9831 15.70998617100162","mean_motion":15.70998617,"eccentricity":0.0001041,"inclination_deg":43.0025,"raan_deg":124.2512,"arg_perigee_deg":343.1002,"mean_anomaly_deg":16.9831,"bstar":0.001075,"rev_number":10016,"period_min":91.661442882098,"perigee_km":355.34071463481,"apogee_km":356.74277064902,"semimajor_km":6734.1787426419,"source":"CELESTRAK","updated_at":"2026-09-22T09:00:49.611391Z"}}}